Wind_Speed
22 20 21 23 24 22 22 24 21 16 15 14 14 16 14 10 12 13 11 9 7 7 9 8 8 7 6 5 5 5 4 5 5 5 6 6 7 8 8 8 8 9 9 9 9 10 10 9 9 9 8 8 8 8 8 9 9 9 9 9 9 8 8 8 9 8 5 5 5 5 7 9 9 10 11 12 12 12 12 12 12 12 12 10 9
22 23 23 23 25 24 22 23 22 18 16 15 18 19 14 12 14 15 14 13 10 8 8 9 9 8 7 6 5 5 5 4 4 4 4 3 3 4 5 5 6 6 7 8 8 9 8 8 8 8 7 7 7 7 7 8 8 8 7 7 8 8 7 7 8 8 6 5 5 5 7 9 8 9 11 12 13 11 11 13 14 14 14 12 9
21 24 25 25 26 23 18 19 22 20 19 20 19 18 15 14 15 16 16 15 13 12 10 10 10 9 9 8 7 6 6 5 4 4 3 3 2 2 2 3 4 4 5 6 6 7 7 7 7 7 7 7 6 6 7 7 7 7 7 7 8 8 8 7 7 7 7 6 5 4 5 7 7 7 8 10 13 11 10 12 15 16 17 15 10
19 22 24 26 26 21 15 17 23 23 22 23 22 19 17 15 14 16 17 16 16 15 14 13 12 11 11 10 9 8 6 6 6 6 5 5 5 5 6 6 6 5 5 5 5 6 7 7 7 7 6 7 7 6 7 7 7 7 7 7 7 7 8 8 8 7 7 6 5 4 4 4 5 6 6 6 9 10 8 9 13 15 18 17 12
16 19 22 24 24 22 18 19 24 24 22 22 21 19 17 16 15 16 17 18 18 17 16 15 14 13 12 10 8 7 6 6 5 4 4 4 5 7 8 9 10 9 9 8 7 7 7 8 8 8 8 8 8 8 8 8 7 7 7 7 6 6 6 7 7 6 6 6 5 4 4 3 3 5 7 6 5 7 7 5 7 13 18 19 14
14 16 19 22 24 24 22 23 24 23 20 20 19 18 18 16 15 17 18 20 20 18 17 16 16 15 13 10 8 6 4 2 2 2 3 4 6 9 11 12 12 12 12 11 11 10 11 10 10 10 10 10 10 10 9 9 8 8 7 7 6 6 5 6 6 6 6 6 5 4 3 3 3 3 6 8 7 7 8 6 5 9 15 16 13
11 14 17 20 22 23 23 24 24 23 22 21 19 18 19 17 15 17 19 20 20 19 18 17 16 14 12 10 8 7 4 0 2 2 4 6 8 12 13 13 14 14 14 13 13 13 13 14 13 13 14 13 13 13 12 12 11 10 9 8 7 7 6 6 5 5 5 4 3 3 2 2 3 3 6 9 7 7 11 10 8 9 12 14 11
10 12 15 18 21 24 23 23 24 24 24 24 22 20 18 17 16 17 19 20 20 19 18 18 17 13 12 10 9 9 7 4 5 6 7 8 10 13 13 13 14 15 15 15 16 16 16 16 16 16 16 16 16 15 15 15 13 13 12 10 10 9 8 7 5 4 4 3 2 1 1 1 2 3 5 7 6 7 11 12 11 12 15 14 10
10 12 14 17 20 23 24 23 23 23 25 27 26 22 19 18 18 19 20 21 20 19 18 19 18 14 10 8 7 7 8 6 8 10 10 8 11 13 12 12 12 14 15 16 17 17 17 17 18 18 18 17 17 17 18 17 16 16 14 13 13 12 9 8 6 5 4 3 2 1 1 1 1 2 3 5 5 7 9 10 10 12 15 15 11
6 9 13 16 18 20 21 20 22 23 24 25 25 23 22 22 21 20 21 21 20 20 19 19 20 14 5 8 11 11 12 12 11 11 11 11 14 15 14 14 13 13 14 15 15 15 16 17 18 19 18 18 17 17 18 19 19 19 16 14 14 13 11 9 6 4 4 2 1 1 3 2 1 2 2 3 5 6 6 8 9 11 13 15 12
1 4 7 11 15 17 17 18 21 24 25 24 24 24 24 24 23 22 22 21 20 19 18 20 23 18 16 22 23 19 19 20 19 18 16 14 15 15 14 13 12 12 13 13 13 14 15 16 17 18 18 18 17 17 17 18 20 21 19 15 14 13 11 9 7 5 3 2 1 2 3 3 1 1 2 2 4 5 6 7 8 9 10 12 13
4 1 2 4 7 10 11 14 17 21 24 26 23 22 23 25 26 25 25 25 24 22 23 27 28 24 24 28 27 23 21 20 22 23 18 14 11 10 10 10 11 12 12 12 12 13 14 14 15 15 16 16 16 16 15 15 17 21 20 16 14 13 10 9 7 5 3 3 3 4 4 4 3 2 2 3 4 5 6 6 7 8 9 10 12
14 9 5 3 3 5 6 9 12 15 18 19 18 19 23 27 28 29 30 29 28 27 29 31 31 28 25 24 25 25 24 22 22 21 15 9 7 6 7 8 9 8 8 8 8 9 10 11 10 10 11 11 12 12 13 11 13 19 20 16 15 14 11 9 7 5 4 4 4 5 6 5 4 4 5 5 5 5 7 7 7 8 9 9 12
19 18 15 11 5 3 5 7 10 12 13 15 15 19 25 29 29 29 29 29 29 30 31 31 30 27 23 23 25 26 24 22 20 16 11 8 6 4 4 4 3 2 1 1 1 2 4 5 5 5 5 5 6 7 8 9 11 16 18 17 16 15 12 10 8 7 6 6 5 6 7 7 5 5 6 6 6 5 6 8 9 10 11 13 16
18 19 19 18 14 5 3 7 10 11 12 14 16 19 24 27 27 27 27 28 29 31 32 31 28 24 22 23 26 25 23 20 17 14 12 10 7 6 6 5 5 5 4 4 4 4 3 3 3 3 3 3 4 4 5 6 10 16 18 17 16 14 11 10 9 8 7 8 7 7 8 7 5 5 6 6 6 7 9 10 12 12 13 15 16
17 18 18 19 19 13 4 4 9 12 15 15 17 20 24 25 23 22 24 27 30 31 30 27 25 23 22 22 23 22 20 18 17 17 14 11 9 8 6 6 6 6 6 6 6 5 5 5 4 4 4 5 4 3 1 3 10 16 17 15 13 10 8 7 7 7 6 7 6 6 6 6 5 6 7 7 7 8 9 10 11 11 12 13 13
17 18 18 18 19 18 12 6 4 11 17 19 19 21 24 25 23 19 20 24 27 28 27 25 23 23 22 21 20 19 17 18 20 18 14 11 10 8 6 6 6 6 6 6 6 6 6 6 5 5 5 4 3 3 3 5 9 12 12 11 9 7 6 5 4 4 4 4 4 5 5 6 7 8 8 8 9 8 8 9 9 9 11 13 13
17 19 19 19 18 17 16 13 7 5 11 18 22 23 24 25 23 21 21 21 21 23 23 22 21 21 21 20 19 19 20 22 21 17 14 12 10 9 7 7 6 6 6 6 6 6 6 6 6 5 4 3 3 3 3 5 6 7 8 8 6 5 4 3 2 3 3 4 4 5 6 7 7 8 8 9 10 9 8 8 9 10 12 13 13
18 18 18 18 17 16 16 15 11 7 6 10 16 19 20 21 21 21 21 18 17 21 22 20 19 18 17 18 20 22 23 23 19 16 14 13 11 10 9 7 7 6 5 5 6 6 6 5 5 4 3 3 3 3 4 4 4 4 4 5 5 4 4 3 2 2 3 3 4 5 6 7 8 9 10 11 12 11 9 9 9 11 13 14 15
17 18 17 16 16 15 15 15 14 10 7 6 7 9 13 15 16 18 20 19 20 22 23 20 18 17 17 18 21 22 21 20 17 15 14 13 12 11 9 8 7 6 6 6 7 7 7 6 6 5 4 3 3 2 2 2 2 2 3 4 5 5 4 4 3 3 4 5 6 7 8 9 10 10 10 10 11 11 10 10 11 12 14 15 16
18 18 18 17 16 15 13 13 14 13 10 7 7 8 9 10 11 13 15 16 18 20 21 20 21 21 20 20 20 19 17 17 16 15 14 13 12 11 9 9 8 8 9 9 8 8 8 7 6 5 3 3 3 2 2 2 2 2 3 3 4 4 4 3 4 5 6 7 8 8 8 8 8 8 8 9 10 10 11 12 12 13 14 16 17
19 20 20 19 18 16 14 12 12 13 10 7 9 10 12 12 13 14 14 15 16 17 18 20 22 22 21 19 18 17 16 16 16 15 14 13 12 11 10 9 9 9 9 10 9 9 8 8 7 5 3 3 3 2 2 2 2 2 2 2 2 3 2 2 4 4 5 6 7 7 7 8 8 9 9 10 10 11 12 13 13 14 15 16 17
20 20 21 21 20 18 16 14 12 11 9 8 8 10 13 16 17 16 16 17 17 16 15 16 19 21 21 19 18 18 18 18 16 16 15 14 13 12 10 9 9 8 8 9 10 10 9 9 7 6 5 3 2 2 1 0 0 0 0 1 2 3 3 3 3 4 5 6 7 8 9 9 10 10 10 11 12 13 14 14 14 14 15 16 17
19 21 22 22 21 20 18 16 14 11 10 11 12 11 11 15 19 19 20 20 21 21 21 21 21 22 22 21 21 20 20 20 18 17 16 15 14 12 10 9 8 7 8 9 11 11 11 10 8 6 5 3 2 1 1 1 1 1 1 2 4 4 4 4 4 5 6 7 8 9 9 10 10 11 12 12 14 15 15 15 14 14 15 16 16
18 19 20 21 22 22 21 19 17 14 12 13 14 14 13 13 17 21 23 25 26 27 27 26 26 26 25 25 24 23 21 20 19 17 16 15 14 12 10 9 8 7 8 10 12 12 11 10 8 6 4 3 2 2 2 2 1 1 2 4 4 4 4 4 5 6 7 8 8 9 10 10 10 11 12 13 14 15 15 14 14 14 14 15 15
17 18 20 21 23 23 22 21 19 17 15 14 14 14 15 15 16 18 22 25 28 30 31 29 28 27 26 26 25 24 22 21 20 19 18 16 14 12 10 9 8 8 10 12 13 12 10 9 7 6 4 4 3 3 2 1 1 2 4 5 4 4 4 5 5 6 7 8 9 9 10 11 12 12 13 13 13 13 13 13 13 13 13 14 15
18 18 19 20 21 21 20 21 20 19 17 16 14 14 15 16 16 17 20 21 22 25 29 30 30 29 29 28 27 26 25 24 23 21 18 16 14 12 10 10 11 11 13 14 13 11 10 8 7 6 5 4 3 3 2 1 1 2 3 4 4 4 4 5 5 6 7 8 9 10 11 12 13 13 12 12 12 12 12 12 13 13 13 14 15
18 19 18 18 18 18 19 21 21 19 17 17 16 15 16 17 16 16 19 19 16 17 21 25 27 28 27 26 25 24 24 23 20 19 18 16 15 14 13 13 14 14 15 15 14 12 10 10 9 8 7 6 4 3 2 1 1 1 2 2 2 4 5 6 6 6 6 8 9 10 12 13 13 13 12 12 12 13 12 12 13 14 14 14 15
20 20 19 18 18 17 17 19 20 18 17 17 16 14 16 18 18 20 21 19 16 15 16 18 19 19 20 20 20 20 19 18 17 18 18 17 15 14 14 15 15 15 14 13 13 14 13 12 10 9 7 6 5 4 2 2 1 1 1 2 2 3 4 6 6 6 7 8 9 10 12 13 12 12 12 12 13 14 13 13 14 14 14 14 15
21 20 18 18 17 16 16 16 16 16 16 16 16 15 16 17 19 22 23 21 19 19 19 17 17 19 21 22 21 20 18 17 19 21 19 16 13 11 12 13 14 14 14 13 14 15 14 11 9 8 6 5 4 3 2 1 1 1 1 2 3 3 5 6 6 7 9 9 9 10 12 12 12 12 13 13 14 14 14 14 14 14 14 15 16
21 20 18 18 18 18 17 15 13 13 14 15 15 15 14 14 14 18 21 23 23 23 22 20 18 17 18 17 17 17 16 17 20 23 20 17 15 13 13 14 14 14 15 16 15 15 12 10 8 7 5 4 3 2 2 2 1 1 2 3 3 5 6 6 7 8 9 9 10 11 11 11 12 13 13 14 14 14 14 14 14 14 14 15 16
22 20 19 19 19 19 19 16 14 13 13 14 14 13 12 10 9 10 14 18 20 21 22 22 21 19 17 16 17 19 18 18 21 22 20 17 16 15 15 16 16 16 16 16 14 12 10 9 8 7 5 4 3 2 2 2 1 2 3 4 5 6 7 7 9 10 9 9 10 11 11 11 12 13 13 14 14 14 14 14 14 14 15 15 15
23 22 20 19 19 20 19 18 15 14 13 14 14 13 13 11 9 9 9 9 14 19 21 22 23 23 23 22 21 23 22 21 21 21 20 18 18 18 18 17 17 17 17 15 12 11 10 8 7 6 5 4 3 3 3 2 1 2 3 5 6 7 8 9 10 10 9 9 10 11 11 12 12 13 13 13 14 14 14 14 14 14 14 15 15
23 23 21 20 18 18 18 18 16 15 15 15 14 14 15 14 12 12 12 10 11 15 19 21 23 24 25 26 25 25 25 24 22 22 21 21 20 21 21 20 19 18 16 13 11 11 10 8 7 6 5 4 4 4 3 2 1 3 4 6 7 8 9 9 9 9 9 9 11 12 12 12 12 13 13 14 14 14 14 14 14 14 14 15 15
22 23 23 23 22 19 18 18 16 15 16 16 15 14 16 17 16 15 15 12 11 12 15 18 20 20 22 25 27 26 24 23 23 23 24 23 23 23 23 22 21 18 14 11 11 10 9 8 7 6 5 5 5 4 2 1 2 3 5 7 8 9 9 9 9 8 9 10 12 12 12 12 12 13 14 14 14 14 14 14 14 14 14 15 15
22 21 22 23 23 21 19 18 17 17 17 17 16 14 15 18 19 18 16 13 12 12 14 16 18 19 19 21 24 24 23 23 25 25 25 25 26 26 24 21 17 15 13 11 11 10 9 7 7 6 6 6 5 3 1 1 3 4 6 8 9 9 9 9 8 9 10 11 12 12 12 12 13 14 14 14 14 14 14 14 14 14 15 15 16
22 21 19 19 20 20 19 18 18 18 18 17 16 14 14 16 18 16 15 15 16 15 14 15 17 17 17 19 23 24 24 24 25 24 24 26 26 24 21 18 16 15 13 12 11 11 9 8 7 7 7 6 4 2 1 2 3 4 7 9 9 9 9 8 10 12 12 11 11 12 12 13 14 14 14 14 14 14 14 14 14 15 15 16 16
22 23 21 19 17 18 18 16 17 18 18 17 17 16 13 14 15 14 13 16 18 18 18 18 17 14 14 19 24 27 27 27 26 26 27 28 24 19 17 18 17 15 13 12 12 10 9 8 8 8 7 5 3 2 1 3 4 5 9 10 9 9 9 9 11 13 12 10 11 12 12 13 14 13 13 14 14 14 14 14 14 15 15 16 16
19 22 24 23 20 19 17 15 15 15 15 16 18 17 14 13 13 12 12 15 18 19 20 21 20 19 21 23 26 29 30 29 28 28 27 24 20 18 18 18 16 14 13 13 12 10 9 9 9 8 6 5 3 1 2 3 5 7 10 10 9 8 8 8 9 11 11 10 11 12 12 13 13 13 13 13 14 15 15 15 15 15 15 16 16
17 17 20 22 23 21 19 17 15 13 13 15 17 17 15 14 13 12 13 15 17 19 21 23 24 26 28 30 31 32 31 27 25 26 25 22 20 20 20 18 15 14 14 13 11 10 10 10 9 8 6 4 2 1 3 4 6 9 10 9 8 8 8 9 11 11 10 10 11 11 12 13 13 13 13 13 14 15 15 15 15 14 15 16 17
15 10 10 16 21 21 21 19 17 13 12 13 15 16 15 14 14 14 13 13 15 18 21 22 23 25 27 31 34 34 31 27 26 27 26 24 22 22 20 17 15 15 15 13 11 11 10 10 9 8 5 3 1 2 4 6 8 9 9 9 9 10 9 10 12 12 10 9 11 11 12 13 13 13 14 14 15 15 15 15 15 14 14 15 16
14 8 2 10 15 18 18 18 18 15 13 11 12 15 15 13 12 13 12 11 12 14 15 16 19 23 25 28 31 31 29 28 29 27 25 24 23 21 18 16 15 14 13 12 11 10 10 10 9 7 4 2 0 2 4 6 9 10 10 10 11 11 10 10 12 12 10 9 11 13 16 16 14 13 14 15 15 16 15 14 15 15 15 15 16
12 9 5 4 9 12 14 14 14 14 12 10 9 12 13 12 10 11 11 11 12 13 13 14 18 22 24 26 28 27 27 29 29 27 26 25 22 20 17 16 14 13 12 11 10 10 9 9 8 6 4 2 1 3 5 7 9 10 11 12 12 12 11 11 13 13 11 11 14 17 18 17 14 13 14 15 16 16 15 14 14 15 15 15 15
12 10 9 8 7 7 8 9 10 11 11 9 8 10 12 11 9 10 11 12 13 14 14 16 19 20 21 24 26 26 27 28 27 27 27 25 21 18 17 15 14 14 12 10 10 9 9 8 7 5 4 1 2 4 5 7 9 11 12 12 12 11 11 12 13 15 15 16 17 18 17 16 13 13 14 16 16 16 15 14 14 15 15 15 15
13 11 11 10 8 7 6 7 9 10 9 8 8 10 11 10 10 11 12 13 14 15 17 21 22 17 16 21 26 27 27 28 28 27 25 22 19 18 16 15 14 13 11 9 9 8 7 6 6 5 3 1 3 4 5 6 9 11 13 13 12 11 12 12 14 16 17 18 18 18 17 16 14 13 14 15 15 15 14 14 14 15 15 16 16
15 14 14 14 12 10 9 8 8 8 9 9 10 11 11 11 11 13 14 15 17 19 22 26 25 18 16 21 26 27 26 27 27 25 22 20 18 16 15 14 13 11 9 8 7 6 5 5 5 4 3 2 2 4 5 6 8 10 12 13 12 12 12 13 14 16 17 17 17 17 18 17 15 13 14 15 14 14 14 13 14 14 15 16 16
16 16 16 15 15 13 12 11 11 10 11 12 12 12 12 12 13 15 16 19 22 25 27 27 25 22 21 24 26 25 25 26 25 22 20 18 17 15 14 12 11 9 8 7 6 5 4 4 4 4 4 2 2 3 5 6 8 9 11 13 13 13 13 13 14 15 16 17 16 17 18 17 14 13 14 14 14 14 14 13 13 14 15 15 15
14 15 15 15 15 14 14 15 15 14 14 14 14 14 15 16 16 16 17 20 24 27 28 27 26 24 23 23 23 23 24 25 23 21 20 18 15 13 12 10 8 7 7 7 7 6 5 4 4 4 4 2 2 4 5 7 8 9 10 12 13 13 13 13 14 15 15 15 16 17 17 15 13 13 13 13 13 14 14 14 13 13 13 14 15
14 14 15 16 17 16 16 15 15 14 14 14 15 16 16 17 17 18 19 22 25 27 27 27 26 24 22 22 22 23 24 24 22 20 18 16 13 11 9 7 7 6 6 6 7 7 5 4 4 4 4 3 2 4 6 7 8 10 10 11 12 13 13 13 14 14 14 14 15 16 16 15 14 13 12 13 13 13 13 13 14 13 13 14 14
16 16 15 15 16 18 19 19 18 18 17 17 19 19 18 18 20 23 24 25 25 26 26 25 24 22 21 22 23 24 23 22 20 18 16 13 11 9 7 5 5 5 6 7 7 6 5 4 4 5 4 3 3 5 6 7 9 10 11 10 11 13 13 13 13 13 13 13 14 15 15 16 17 15 14 13 13 13 13 13 13 13 13 14 14
18 18 18 16 16 17 19 20 21 22 22 23 24 24 22 22 23 25 25 24 24 24 23 22 21 21 21 22 23 23 22 20 18 16 13 10 8 7 6 4 3 5 6 6 6 5 4 5 4 4 4 4 4 5 6 8 9 10 11 10 10 12 13 13 12 12 11 12 13 14 15 15 17 17 16 15 14 13 12 13 13 13 13 14 14
Wind_Direction
185 176 179 188 191 191 194 191 184 180 178 170 185 216 236 234 220 219 214 205 205 207 205 200 192 184 175 165 153 146 142 137 130 119 116 115 118 124 127 128 130 130 133 134 134 137 138 140 141 137 132 128 125 122 121 119 116 112 109 104 97 92 91 96 105 115 113 94 90 79 68 66 62 63 68 69 68 66 61 58 55 49 49 43 29
186 186 187 192 193 192 192 192 190 193 198 197 202 216 239 246 228 222 220 214 211 212 212 207 202 200 196 192 187 185 185 178 166 152 145 137 130 134 141 145 145 142 142 146 150 150 148 151 151 145 142 141 140 139 136 136 132 126 119 115 108 99 95 100 105 114 123 117 110 94 75 73 69 62 63 64 63 62 57 54 52 46 44 45 36
186 187 188 191 191 191 197 199 196 199 208 216 222 226 237 246 237 226 223 221 215 213 215 212 206 206 207 207 206 205 206 207 206 202 197 198 209 222 218 200 190 180 168 164 167 168 168 171 171 165 162 159 160 161 155 151 148 142 135 126 120 108 101 105 106 112 125 125 122 116 86 75 70 61 58 54 50 50 49 45 43 38 34 37 40
191 191 192 192 191 197 211 211 203 204 212 223 232 233 235 247 247 235 228 227 224 216 212 212 211 209 210 212 211 209 210 215 222 228 232 240 250 257 263 259 251 244 231 214 206 202 196 195 199 195 188 187 186 183 175 168 161 155 148 136 127 115 103 102 102 106 122 128 124 119 99 83 71 53 47 41 35 36 40 36 35 31 25 26 29
197 198 200 201 201 205 212 211 209 210 216 226 235 239 240 245 247 244 236 230 229 224 215 212 211 210 210 207 201 198 200 209 221 235 247 261 279 285 282 275 269 265 261 255 248 243 234 225 223 220 215 213 210 205 199 189 180 172 165 154 145 132 114 104 98 100 114 126 129 117 94 84 72 45 37 34 23 20 21 20 23 19 15 17 16
201 202 207 210 210 208 209 211 215 219 226 232 237 239 239 240 244 246 241 233 230 226 220 215 212 211 209 200 190 181 174 198 234 254 274 287 304 308 301 290 282 275 270 268 263 260 257 251 245 239 235 233 231 226 218 210 203 196 189 179 168 157 140 120 105 103 109 117 126 123 100 72 62 44 24 22 24 20 13 4 359 3 5 7 6
207 208 210 213 214 213 212 214 220 230 238 242 246 245 239 239 242 243 241 236 229 223 220 217 213 208 199 188 183 179 169 74 351 325 304 300 310 315 306 295 288 282 278 277 275 271 267 262 257 251 247 245 245 241 233 225 219 216 213 203 191 180 166 145 124 116 116 118 119 117 118 62 37 29 11 13 20 19 12 5 353 350 354 357 355
217 218 217 219 222 221 220 222 229 239 241 243 252 257 252 247 245 242 237 232 228 222 214 206 198 189 178 168 169 184 201 251 302 309 310 307 315 317 305 291 282 278 276 276 276 276 272 269 266 261 257 255 253 251 245 237 228 220 219 216 209 198 181 165 151 140 132 132 129 119 159 157 26 15 10 15 15 6 5 360 349 344 345 346 345
226 228 227 229 231 229 230 232 238 244 243 243 249 258 261 258 253 242 231 229 227 216 203 193 182 170 162 164 174 200 224 249 282 293 293 300 316 316 300 286 276 269 268 268 268 270 269 269 270 269 268 266 261 257 253 248 239 229 224 222 215 205 191 179 171 164 162 161 162 199 270 246 38 19 16 19 7 353 353 351 344 339 337 338 336
224 232 234 238 240 239 238 237 240 243 243 242 246 250 251 253 250 238 228 227 219 202 194 191 183 177 200 235 226 224 234 247 259 264 265 284 305 300 285 278 272 264 265 265 264 266 265 266 270 271 273 273 267 262 257 251 246 240 238 236 224 211 199 192 187 182 184 184 175 270 305 308 13 21 5 360 349 342 343 342 338 334 333 334 333
225 239 239 241 243 241 238 235 235 238 239 240 242 241 238 235 233 229 223 215 205 202 208 208 206 216 242 246 237 224 225 236 233 225 240 275 291 283 272 269 266 261 262 261 262 264 265 267 269 270 272 273 273 270 262 254 247 240 240 243 235 221 212 205 201 199 198 208 222 252 292 296 301 333 329 329 330 329 332 329 326 329 331 328 325
50 357 273 255 250 242 234 229 230 233 237 238 235 229 223 218 216 218 215 207 207 218 227 225 226 236 242 237 230 218 214 221 216 216 239 269 273 264 261 259 259 260 261 264 269 273 274 275 274 271 271 271 272 274 270 262 247 235 232 234 226 217 214 214 215 217 221 238 242 240 256 270 271 268 273 298 309 313 317 315 315 320 319 313 312
56 50 30 338 287 256 235 226 226 229 232 232 224 212 209 208 208 212 212 211 214 221 224 223 225 233 235 224 215 213 215 216 215 223 242 250 235 242 254 251 254 260 264 272 279 282 284 284 282 278 272 267 268 273 274 269 247 229 223 218 210 205 209 217 223 230 239 243 239 235 247 259 264 256 261 285 302 307 310 311 310 310 306 300 301
48 47 40 31 10 274 238 230 229 229 228 223 214 206 205 205 208 213 215 216 218 218 217 218 222 229 230 215 208 212 216 213 216 222 219 200 192 197 201 203 201 193 207 303 319 313 308 299 297 296 284 275 276 277 276 269 242 219 208 202 199 202 209 218 224 233 241 243 240 242 252 255 253 260 275 292 304 302 299 304 306 303 299 298 299
33 35 33 30 25 11 235 229 230 228 225 220 213 206 205 208 214 218 219 220 219 216 213 216 223 229 224 213 210 211 210 208 209 201 184 173 163 148 138 121 106 103 94 82 73 57 38 14 351 348 344 328 317 303 283 257 222 202 193 192 195 201 211 220 228 236 241 244 245 245 250 252 250 266 288 302 305 300 300 302 303 299 297 298 298
16 18 19 19 19 17 1 240 230 226 223 222 218 214 214 217 219 219 221 222 219 215 214 220 228 225 216 210 208 206 206 203 193 180 170 163 156 146 131 113 107 101 97 92 84 75 64 48 40 34 21 3 350 352 351 202 193 187 184 188 194 201 213 223 234 247 252 253 254 254 256 265 276 284 294 301 300 302 305 301 298 296 294 295 294
1 1 1 3 6 8 7 353 265 232 227 227 228 226 226 229 232 230 231 229 224 219 220 224 224 216 210 206 201 198 196 188 179 173 167 160 158 154 139 128 120 106 98 91 81 76 70 58 57 57 48 40 53 78 101 154 180 185 187 190 193 197 208 220 236 253 262 266 270 273 276 283 289 291 296 298 296 300 301 295 296 299 296 295 295
354 351 349 348 350 355 358 355 343 283 241 233 233 234 235 237 239 235 229 228 232 232 227 218 212 209 207 199 187 179 177 176 175 173 166 161 162 160 152 144 133 117 100 88 78 75 69 62 62 64 73 103 132 143 152 164 177 187 191 186 177 176 193 212 234 260 279 288 288 291 292 291 290 290 293 293 293 297 297 292 297 300 294 292 295
344 342 340 339 337 340 346 346 342 334 299 250 234 234 238 239 236 228 219 215 225 232 227 217 207 201 195 184 172 167 170 173 173 171 167 166 168 164 158 153 143 129 111 99 94 90 82 76 76 76 94 136 162 182 187 185 186 187 181 166 153 162 190 207 223 253 275 284 286 290 291 289 290 291 290 290 293 295 292 286 290 293 290 290 293
329 328 327 328 328 327 330 334 335 331 313 271 226 213 222 227 224 216 212 213 218 222 220 211 194 176 169 170 167 167 170 171 170 170 172 173 172 167 160 155 149 142 135 128 119 113 107 102 100 102 107 121 133 145 159 177 188 173 157 151 156 174 196 210 228 253 273 282 287 290 289 289 292 291 289 290 292 291 287 283 282 283 284 286 286
318 319 319 318 321 321 317 319 325 326 309 269 229 194 186 193 194 191 193 199 205 203 195 184 172 162 163 168 169 169 172 173 172 175 178 177 173 169 164 161 159 158 153 145 134 130 129 125 122 121 117 118 122 126 136 152 169 174 174 179 189 200 211 232 263 282 291 293 294 295 292 292 293 290 289 290 288 285 285 284 281 278 278 279 281
312 313 313 312 313 315 313 308 310 317 311 275 238 213 193 179 172 172 172 171 176 181 177 169 164 163 165 169 170 171 175 178 180 180 179 178 175 172 170 167 164 161 156 151 146 145 146 145 142 141 146 149 145 142 146 153 163 183 193 202 227 247 259 278 294 299 298 297 299 297 294 294 295 294 293 294 292 289 289 288 284 280 277 275 276
307 305 305 305 305 306 308 306 303 302 295 278 261 238 211 192 183 184 185 178 174 178 181 177 169 166 165 167 173 177 177 180 184 183 179 178 177 175 172 167 161 157 156 158 160 159 156 156 155 157 162 164 156 144 130 98 90 90 43 306 305 312 322 323 317 312 306 302 301 299 297 298 300 300 299 299 298 295 293 292 290 287 285 282 278
303 299 297 297 297 297 300 301 300 295 280 270 272 268 241 214 201 195 191 186 181 180 182 182 175 169 167 168 174 179 180 181 182 182 181 179 176 173 169 162 156 154 157 161 164 164 163 163 162 163 165 162 153 130 80 49 45 45 8 333 329 335 339 332 324 316 309 304 303 302 301 302 302 302 302 301 299 298 297 296 294 291 288 286 283
298 295 293 291 290 291 292 292 291 290 282 273 270 267 261 243 219 201 190 186 184 182 181 180 175 171 170 172 175 179 181 181 181 179 178 176 173 170 165 158 153 152 156 162 165 165 165 164 162 162 163 155 138 118 101 86 55 12 337 332 338 345 340 330 322 317 311 307 306 306 305 306 306 304 304 303 301 301 301 298 294 291 288 287 286
292 289 288 286 285 286 286 286 285 282 279 281 277 266 256 247 236 220 202 191 186 183 181 180 177 175 175 176 177 177 178 180 179 175 173 172 169 165 159 154 153 155 158 160 160 159 157 158 158 159 158 153 145 134 120 90 22 337 325 329 341 345 335 327 322 317 313 310 309 309 309 312 311 308 305 304 301 300 301 298 295 295 294 293 292
285 282 281 281 281 280 278 279 281 280 276 276 278 272 255 241 234 227 215 204 196 190 185 181 180 179 178 177 176 175 176 178 177 174 174 174 170 165 162 159 158 158 158 157 156 154 153 153 157 161 159 154 147 134 118 86 19 347 338 339 342 335 327 327 323 317 313 311 309 311 312 311 309 306 304 301 298 297 298 297 295 295 296 296 294
278 277 277 276 274 271 270 271 273 276 275 270 270 272 265 249 235 225 217 209 206 204 196 188 184 181 177 176 176 175 176 181 186 187 187 185 176 169 168 167 165 165 164 161 158 156 155 155 156 157 153 146 137 127 119 117 61 7 360 358 345 335 335 336 331 319 311 309 307 308 312 310 304 302 301 298 297 298 299 297 294 292 294 294 291
276 275 274 272 268 264 262 263 264 264 266 266 265 267 266 254 240 232 226 218 217 223 218 207 202 199 194 192 192 190 189 196 205 206 201 193 185 179 176 173 170 170 170 167 162 158 157 158 157 154 153 150 145 143 141 129 102 48 26 17 2 346 338 333 325 315 311 309 305 306 309 307 302 301 300 298 298 299 298 295 293 292 292 291 289
276 273 269 266 264 262 259 255 253 252 254 258 258 259 260 256 246 239 236 233 233 235 235 236 239 236 227 217 208 203 206 214 213 205 196 186 180 178 178 176 173 170 168 167 166 163 160 159 157 156 159 162 160 158 150 123 113 103 38 7 353 340 334 327 318 314 313 307 304 307 307 302 299 300 300 298 298 299 297 294 291 290 290 290 290
273 271 268 263 261 262 263 259 253 248 246 247 249 246 242 244 247 245 243 240 238 236 237 236 233 231 231 227 213 207 212 217 209 197 186 176 171 169 171 174 173 170 167 166 165 164 160 158 159 161 164 165 161 150 134 110 93 67 12 350 339 335 331 324 318 317 311 304 305 309 307 302 300 300 299 297 297 297 297 296 292 291 290 290 290
265 265 265 264 262 262 263 263 259 252 245 241 237 227 213 210 222 235 241 241 235 229 225 218 211 212 223 231 229 222 213 204 197 191 182 174 172 171 172 172 171 170 171 168 164 161 161 162 162 163 164 161 152 137 127 117 88 31 354 339 333 331 324 322 326 327 319 309 310 311 307 304 304 302 300 298 297 296 297 297 295 293 292 290 289
258 257 257 259 260 259 259 259 257 251 243 236 229 218 205 194 191 194 202 218 224 224 223 220 217 217 215 214 220 221 209 191 186 187 182 175 173 171 170 170 170 169 170 168 163 159 162 163 162 160 161 157 152 147 136 120 66 3 341 331 328 325 323 326 332 332 322 313 314 313 310 308 308 305 302 300 297 296 296 296 296 295 294 294 294
254 251 248 248 252 254 254 255 252 247 241 237 232 224 215 204 191 181 173 171 189 208 216 219 218 215 210 206 208 210 201 186 181 183 180 174 172 170 166 166 169 170 170 169 163 159 159 160 159 158 157 154 151 147 133 101 16 342 333 327 323 322 322 325 327 324 317 316 320 321 318 315 312 309 305 301 299 298 298 298 298 297 296 297 297
255 250 245 242 242 245 249 251 250 246 242 237 234 232 225 213 200 188 179 172 172 181 195 205 210 210 209 203 199 197 193 183 178 178 176 172 170 168 164 162 166 170 173 171 165 161 159 159 158 156 155 153 148 139 122 59 348 333 327 325 323 323 324 324 320 318 318 322 326 326 324 321 317 312 307 303 300 300 301 302 302 300 298 297 297
259 251 244 239 236 235 238 243 243 242 238 234 233 237 232 222 212 202 192 187 180 172 177 190 196 199 200 193 187 187 186 178 173 173 173 172 171 169 165 162 164 167 169 167 162 159 156 156 156 154 151 149 143 130 105 5 335 325 323 324 323 321 320 320 321 325 328 330 329 326 323 321 319 315 310 305 302 303 304 305 303 301 298 297 297
258 250 242 236 230 226 228 234 237 235 232 230 230 232 233 228 222 211 200 193 184 174 174 179 178 180 184 181 175 174 171 167 167 168 169 171 172 171 167 164 162 162 162 161 158 156 154 153 153 151 149 145 136 124 71 340 322 315 322 326 324 322 326 335 344 346 343 335 328 324 321 319 318 315 311 308 306 307 308 308 305 301 300 300 300
260 249 241 233 227 221 221 226 230 229 227 224 223 222 225 225 218 207 197 192 184 178 180 181 174 167 164 162 161 160 158 156 158 162 165 168 171 172 170 166 161 157 157 157 157 155 152 151 151 148 146 140 127 111 4 330 318 317 327 329 325 326 336 345 350 350 346 334 325 324 323 321 319 317 314 311 310 310 310 308 307 305 305 306 305
272 256 243 235 228 220 216 217 221 223 222 219 218 217 216 214 209 199 190 189 187 183 179 176 175 173 167 158 154 154 153 152 155 159 162 167 172 174 171 165 157 154 155 155 154 152 149 150 150 147 143 137 121 80 339 325 321 325 332 333 325 326 336 342 345 346 341 331 327 327 326 324 321 319 317 314 313 313 312 309 308 309 308 308 306
300 273 247 234 225 218 215 214 213 213 215 214 213 214 211 206 202 196 189 189 191 188 179 173 174 174 170 166 163 159 155 154 158 161 162 166 172 173 169 162 155 156 155 152 151 150 148 150 151 148 142 136 118 11 335 333 331 331 334 335 330 331 339 346 348 345 335 327 328 330 330 328 324 321 320 319 317 317 314 310 309 309 307 305 304
330 308 254 231 220 213 211 213 210 208 209 208 208 209 209 206 204 199 191 186 187 187 185 181 179 177 173 170 168 165 161 159 161 162 163 166 169 168 164 160 157 157 154 150 150 150 149 151 154 150 143 137 100 345 336 339 339 336 336 340 342 343 345 347 347 343 331 326 331 333 333 331 327 322 322 322 322 323 319 314 311 311 307 306 307
356 359 270 220 211 203 204 208 210 210 209 203 203 206 204 200 198 194 184 174 169 173 175 174 173 177 179 173 167 164 162 161 161 162 163 164 162 160 157 155 154 152 150 149 149 150 151 155 154 148 145 149 8 343 338 341 342 342 344 349 350 349 348 346 344 340 332 327 333 339 340 338 330 322 321 324 327 329 326 319 315 314 312 311 312
13 28 63 154 185 191 197 202 202 202 201 196 196 198 195 189 185 180 174 165 154 153 158 161 162 167 173 170 164 161 161 161 163 163 160 156 154 152 150 149 148 147 146 146 148 150 153 154 152 152 162 187 335 346 341 342 347 352 355 355 352 349 349 348 344 340 335 334 338 343 344 340 331 324 324 328 331 331 327 320 317 317 317 315 315
26 41 66 92 124 158 179 183 182 184 186 183 180 182 181 176 167 161 161 158 148 143 150 156 155 156 160 161 159 159 160 160 160 158 154 151 150 149 147 145 145 145 144 144 148 152 152 151 154 165 184 225 338 348 343 345 355 1 1 356 350 347 348 348 345 342 340 340 343 344 343 337 331 328 329 331 333 332 328 322 319 319 319 318 318
35 43 61 76 87 102 123 144 157 163 163 157 156 159 160 155 150 149 151 149 143 140 142 145 147 152 158 156 155 157 158 156 154 153 152 150 149 147 144 143 143 143 142 145 150 152 151 153 162 177 194 245 335 346 348 351 1 5 2 356 350 347 347 346 344 344 344 345 345 345 342 338 333 330 331 333 333 331 327 323 322 321 320 319 318
45 49 58 68 74 81 92 110 124 131 131 132 135 136 135 133 140 151 154 149 145 144 144 144 147 154 157 153 152 154 154 152 151 151 150 148 147 146 145 144 143 143 147 154 160 161 160 162 171 186 203 244 324 346 354 359 3 3 1 357 354 350 349 347 345 344 346 348 348 347 345 342 336 331 331 333 333 330 327 325 324 324 322 320 319
51 53 57 64 71 76 83 92 102 109 117 121 120 120 121 122 127 139 147 147 143 141 140 142 147 150 149 147 148 150 150 150 151 150 149 149 149 148 146 144 144 149 160 170 176 183 191 189 187 197 215 251 321 346 358 3 2 357 356 357 356 353 350 349 348 347 349 351 351 350 349 346 338 333 334 335 334 333 331 328 327 326 325 323 321
55 57 57 62 68 73 80 89 97 101 106 108 106 107 114 118 120 126 133 135 135 135 137 141 144 145 143 143 146 148 150 151 151 150 149 150 150 148 146 147 151 161 172 181 187 197 211 215 207 212 229 256 312 336 348 358 358 351 350 354 356 353 351 351 351 350 351 353 355 356 354 349 340 334 334 336 336 336 334 332 331 330 329 329 329
59 61 63 67 72 76 80 88 94 96 97 100 102 104 108 112 115 119 125 130 132 134 138 140 141 141 142 145 148 148 149 150 150 149 148 149 149 149 149 153 161 168 178 186 194 204 219 224 219 225 241 259 302 323 335 348 350 345 344 348 352 353 354 355 353 352 353 356 360 1 360 357 352 344 338 337 338 338 337 336 336 335 334 335 336
70 70 72 74 77 80 84 88 93 96 99 102 104 105 104 104 110 117 123 127 130 133 135 137 138 139 142 145 146 147 147 148 147 147 147 146 147 148 149 154 167 177 183 190 198 210 223 225 223 232 249 266 291 313 326 337 341 339 339 341 348 354 357 358 357 357 358 360 1 2 3 4 4 1 353 346 343 342 343 342 341 341 342 343 342
77 78 79 82 84 86 88 89 91 95 101 105 107 108 107 108 112 118 123 126 128 131 133 136 138 141 143 145 146 147 148 147 145 144 143 139 136 138 145 156 169 174 178 186 197 208 215 220 230 246 261 271 284 304 320 329 334 336 335 335 343 354 359 359 0 3 3 1 1 2 3 5 8 7 5 360 352 347 347 349 348 347 349 349 348
Height
809 810 810 809 809 809 811 814 817 819 819 820 823 825 827 829 831 833 834 834 835 836 838 838 839 841 841 842 843 844 845 846 847 848 849 850 850 851 851 852 853 853 854 854 855 855 856 856 856 856 856 857 857 857 857 857 857 857 858 858 858 858 859 859 859 862 864 864 864 864 864 863 863 862 862 861 860 859 858 857 856 856 855 855 854
807 808 808 808 808 809 811 813 816 818 819 820 822 823 826 829 830 832 833 834 834 835 837 838 839 840 841 842 843 844 845 846 847 848 849 850 851 852 852 853 853 854 854 855 855 856 856 856 856 857 857 857 857 857 857 857 857 857 858 858 858 858 859 859 859 861 863 864 864 864 863 863 863 863 862 861 860 859 859 858 857 856 855 855 854
804 806 807 807 808 809 811 812 814 816 818 819 820 823 825 828 829 831 832 833 834 835 836 837 838 839 840 841 842 843 845 846 847 848 849 850 851 852 853 854 854 855 855 855 856 856 856 856 856 856 856 857 857 857 857 857 857 857 857 858 858 858 858 859 859 860 861 862 863 863 863 862 862 862 861 860 860 859 859 857 856 856 855 854 854
802 804 806 806 808 809 810 811 813 815 817 818 819 822 824 826 828 830 831 831 833 834 835 836 837 838 839 840 842 843 845 846 847 848 848 849 850 851 853 854 854 855 855 855 856 856 856 856 856 856 856 856 857 857 857 857 857 857 857 857 857 857 857 858 858 859 859 861 861 862 861 861 861 861 860 860 859 858 858 857 856 855 854 853 853
802 803 805 806 807 808 809 810 811 813 816 817 819 821 823 825 826 828 830 830 831 833 834 836 836 837 839 840 841 843 844 845 846 847 848 849 850 851 852 853 854 854 855 855 855 855 855 855 855 856 856 856 856 856 856 856 857 857 857 857 857 857 857 857 857 858 858 859 860 860 860 860 860 859 859 859 859 858 857 857 855 855 854 853 852
802 803 804 805 806 807 808 809 810 812 814 816 818 819 821 823 825 826 828 829 830 831 833 835 836 837 838 839 841 842 843 844 846 847 848 848 849 850 851 852 852 853 853 854 854 854 854 854 855 855 855 855 855 855 856 856 856 856 856 856 856 856 856 856 857 857 858 858 859 859 859 859 859 859 858 858 857 857 857 856 855 854 853 852 851
802 803 804 805 806 807 808 809 810 811 813 814 816 818 819 821 823 825 826 828 829 830 831 833 835 836 837 839 840 841 842 843 845 846 847 848 849 849 850 851 851 851 852 852 852 852 852 853 853 853 853 853 853 854 854 855 855 855 855 855 856 856 856 856 856 857 857 858 858 858 859 858 858 858 858 857 856 856 856 855 854 853 852 851 850
802 803 804 805 805 806 807 809 810 811 813 814 815 817 819 821 823 824 826 827 829 829 830 831 834 836 837 838 839 840 841 842 844 845 847 848 849 849 850 850 850 850 850 850 850 850 850 850 850 851 851 851 852 852 852 853 853 854 854 854 855 855 855 855 855 856 856 857 857 857 858 857 857 857 857 856 856 856 855 854 854 852 851 850 849
803 804 804 804 805 806 807 809 810 811 812 812 814 816 819 822 823 825 825 827 828 829 829 830 832 835 836 837 838 839 840 842 844 846 847 848 849 849 849 849 849 849 848 848 848 848 848 848 848 848 849 849 850 850 850 851 851 852 852 852 853 854 854 854 854 855 855 855 856 856 856 856 856 856 856 856 856 855 855 854 853 852 850 849 848
804 804 804 805 805 806 808 809 810 810 810 811 813 815 817 820 823 825 825 826 827 828 829 830 831 833 835 837 837 838 841 844 846 847 846 847 848 848 848 848 847 847 847 846 846 845 845 846 845 846 846 846 847 848 848 849 849 850 850 851 851 852 853 854 854 854 854 854 855 855 855 855 855 855 855 855 855 854 854 853 853 852 850 848 847
804 804 805 805 805 806 807 808 809 809 809 811 812 813 815 817 820 822 823 824 825 827 829 829 829 830 832 833 834 836 839 842 844 845 845 846 847 846 846 846 846 846 845 844 844 843 843 843 843 843 843 844 844 844 845 846 847 848 849 849 850 851 852 852 852 853 853 853 854 854 855 854 854 854 854 854 853 853 853 852 852 851 850 848 846
806 805 805 805 805 806 807 808 808 808 808 808 809 811 813 815 817 819 820 821 821 822 825 827 827 827 828 829 830 833 836 838 840 842 844 845 845 845 845 845 844 844 843 843 842 842 841 841 841 841 841 841 841 842 842 843 844 846 847 848 849 850 850 851 851 852 852 852 853 853 853 853 853 853 853 852 852 852 852 851 851 850 849 848 846
807 807 806 806 806 807 807 808 808 807 808 808 809 810 811 813 815 816 817 819 819 819 821 823 824 825 825 826 828 831 833 835 837 840 842 843 843 843 843 843 843 843 842 841 841 840 840 840 840 840 840 840 840 840 840 840 841 843 845 847 848 848 849 850 850 850 851 851 851 852 852 852 852 852 851 851 851 851 851 850 849 849 848 847 845
808 808 807 807 806 806 807 808 808 808 808 808 809 810 810 811 813 813 815 817 817 817 818 820 821 822 823 824 826 829 831 833 835 838 840 841 842 842 842 842 842 841 841 840 840 840 839 839 839 839 839 838 838 838 839 839 839 841 843 845 846 847 848 848 848 849 849 850 850 850 851 851 851 851 850 850 850 850 850 849 848 847 846 844 842
809 809 808 807 807 806 806 806 806 807 807 808 809 809 810 810 811 811 812 814 815 815 816 817 818 819 820 822 824 826 828 830 834 836 838 839 840 841 841 841 841 840 840 840 839 839 839 839 839 839 838 838 838 838 838 838 838 840 842 844 845 846 846 847 847 848 848 848 849 849 849 849 850 849 849 848 848 848 847 847 846 845 843 842 840
809 809 808 808 808 807 806 805 805 805 805 806 807 807 808 809 809 810 811 812 812 813 814 815 816 816 818 820 822 824 826 829 832 834 836 838 839 840 840 840 840 840 840 840 840 839 839 839 839 838 838 838 837 837 837 838 839 841 842 843 844 845 845 846 846 847 847 847 847 848 848 848 848 848 847 847 847 846 846 845 844 843 842 840 837
810 809 808 808 808 807 806 805 804 804 804 804 804 804 805 806 807 809 811 812 812 812 812 812 813 814 816 818 820 822 825 828 830 832 834 836 837 838 839 839 839 840 839 839 839 839 838 838 838 838 838 838 838 838 839 840 841 842 843 844 844 845 845 845 846 846 846 847 847 847 847 847 847 846 846 845 845 844 844 844 843 842 840 838 835
811 810 809 808 808 807 806 806 804 803 802 802 802 802 802 803 804 806 808 810 811 812 812 811 811 813 814 816 817 820 823 827 829 831 832 834 835 836 837 838 838 839 838 838 838 838 838 838 838 838 838 839 839 839 840 841 842 843 843 844 844 845 845 845 846 846 846 846 846 846 846 846 845 845 844 843 843 842 843 842 841 840 839 836 834
812 811 810 808 808 807 806 805 804 803 802 801 800 800 800 801 802 803 804 805 807 809 811 811 811 812 814 815 816 818 822 825 827 829 831 832 833 835 836 837 837 837 837 837 837 837 838 838 838 838 839 839 840 840 840 841 842 843 843 844 844 844 845 845 846 846 846 846 845 845 845 844 844 843 842 842 841 840 840 840 840 839 837 835 833
812 811 810 809 808 807 806 805 804 803 802 801 799 799 799 799 799 800 801 802 803 805 807 809 809 811 813 815 816 818 821 824 826 828 830 831 832 833 834 835 835 836 836 837 837 838 838 838 839 839 839 840 840 841 841 841 842 842 843 844 844 844 844 844 845 845 845 845 844 844 844 843 842 841 841 840 839 839 838 838 837 836 835 833 831
811 810 810 809 808 807 806 805 804 803 802 801 800 799 799 799 799 798 799 800 802 804 805 806 807 809 811 814 816 818 821 823 825 827 829 830 831 832 832 833 834 835 836 836 837 837 838 839 839 840 840 840 840 841 841 841 842 842 843 843 843 843 844 844 844 844 844 844 843 843 842 841 841 840 839 838 838 837 836 835 834 833 832 830 829
810 809 809 808 807 806 806 805 804 803 802 802 801 800 799 799 799 799 799 799 802 804 805 804 805 807 810 813 815 818 820 823 825 826 827 828 829 830 831 832 833 833 834 835 836 837 838 839 839 840 840 840 840 841 841 841 842 842 842 843 842 843 843 843 843 843 843 843 842 841 841 840 839 838 837 836 835 834 833 832 831 830 829 828 826
809 808 807 807 806 805 805 804 803 803 802 802 801 801 800 799 799 799 799 799 801 804 806 806 806 807 809 812 814 817 819 821 823 825 826 827 827 828 830 830 831 832 832 833 835 836 837 838 839 839 840 840 840 840 841 841 841 842 842 842 842 842 842 842 842 842 842 842 841 840 839 838 837 836 835 834 833 832 830 829 828 827 826 824 823
808 807 806 805 804 803 803 803 802 802 801 802 801 801 800 799 798 798 798 798 799 801 804 806 806 807 808 810 813 816 818 819 821 823 824 825 826 827 828 829 829 830 831 832 834 835 836 837 838 839 839 839 840 840 840 841 841 841 842 842 841 842 842 842 842 841 841 840 839 838 837 836 835 834 833 832 830 829 827 826 825 824 823 821 820
806 804 804 803 802 801 801 801 800 800 800 800 800 800 800 799 798 797 796 796 797 799 801 803 804 805 806 808 811 813 816 818 820 821 823 825 826 826 827 827 828 829 830 831 833 834 836 837 838 838 839 839 839 840 840 840 841 841 841 841 841 842 842 841 841 840 840 839 838 837 836 835 834 832 831 830 828 827 826 824 823 821 820 818 817
803 802 801 800 799 799 798 798 798 798 798 798 798 799 799 799 798 798 797 796 796 796 798 799 801 803 804 806 808 810 813 817 819 820 822 824 824 824 825 826 827 828 829 831 832 834 835 836 837 838 839 839 839 839 840 840 841 841 841 841 841 842 841 841 840 840 839 838 837 836 835 833 832 831 829 828 827 825 824 822 820 819 817 816 814
800 799 798 797 797 796 796 795 795 795 796 796 796 796 797 797 797 797 797 796 796 796 796 797 798 800 802 804 807 809 812 815 817 818 820 821 821 822 824 825 826 828 829 830 832 833 834 836 837 838 839 839 839 840 840 840 841 841 841 841 841 841 840 840 839 838 838 837 836 835 834 833 831 830 828 826 825 823 822 820 818 817 815 814 812
798 796 795 795 794 793 793 792 792 793 793 793 793 794 794 795 795 796 795 796 797 797 797 797 797 799 801 803 806 808 810 812 813 815 816 818 819 821 823 824 826 827 828 829 831 832 834 836 838 839 839 839 840 840 840 841 841 841 841 841 840 840 839 838 838 837 837 836 835 834 833 832 830 828 826 825 823 821 820 818 817 815 813 812 810
795 794 792 791 790 790 789 789 789 789 790 789 790 791 791 791 793 794 794 794 796 797 798 799 799 800 801 802 803 805 806 808 811 814 815 816 817 820 822 823 825 826 827 829 830 832 835 837 838 839 839 839 840 840 840 840 841 840 840 840 840 839 839 838 837 837 836 835 833 832 831 830 828 826 825 823 821 819 818 816 814 813 811 809 807
793 791 790 788 787 786 786 785 785 786 786 786 787 787 787 788 789 790 791 793 794 796 798 800 801 802 802 800 800 802 804 807 811 813 814 815 816 819 821 823 824 826 827 829 831 833 835 837 838 838 839 839 839 840 840 840 840 840 839 839 839 839 838 837 837 836 834 833 832 831 830 828 826 825 823 821 819 817 816 814 812 810 809 807 804
790 788 787 786 784 783 783 782 782 782 783 783 784 784 784 785 785 786 787 789 791 793 795 797 800 801 801 800 801 803 805 807 810 812 813 813 815 818 820 823 825 826 827 829 831 833 835 836 837 838 838 838 839 839 839 839 839 839 839 839 838 838 837 836 836 835 833 832 831 830 828 826 825 823 821 819 818 815 813 812 810 808 806 804 802
786 785 785 783 782 782 780 779 779 779 779 780 781 781 782 782 783 784 784 786 788 790 792 795 796 798 799 799 801 803 805 807 809 811 811 811 814 817 820 823 825 826 827 829 831 832 834 835 836 836 837 837 838 838 838 838 838 838 838 838 838 837 837 836 835 833 832 831 829 828 826 825 823 821 820 818 816 814 812 810 808 806 804 802 800
781 780 780 780 780 779 778 777 776 776 776 777 777 778 779 780 781 782 782 784 785 787 789 792 793 794 795 796 798 801 803 804 806 807 809 810 814 817 820 823 825 826 827 829 830 832 833 834 835 835 836 836 837 837 837 838 838 838 838 838 837 837 836 834 833 832 830 829 828 826 825 823 822 820 818 816 814 812 810 808 806 804 802 800 798
776 775 775 776 776 776 775 774 774 773 774 774 774 775 776 777 778 779 781 782 783 785 786 788 790 791 792 793 795 798 801 801 802 804 807 810 814 817 820 823 825 826 827 829 829 831 832 833 834 834 835 836 836 837 837 837 838 838 838 837 837 836 835 833 832 831 829 828 826 825 823 822 820 818 816 814 812 810 808 806 804 802 800 798 796
771 770 770 770 771 771 771 771 771 771 771 771 772 772 773 775 776 777 778 780 781 782 784 785 787 789 790 791 793 796 798 799 800 803 806 810 814 817 820 823 825 826 827 828 829 830 831 832 833 834 835 835 836 836 837 837 837 838 837 837 836 835 834 832 831 829 828 827 825 824 822 820 819 817 815 812 810 808 806 804 802 800 798 796 794
766 765 764 764 765 766 767 768 768 768 769 769 770 771 771 773 774 775 777 778 780 781 782 784 785 788 790 790 791 794 797 798 799 802 806 810 813 817 819 822 823 825 826 827 828 829 830 831 832 833 834 835 835 836 837 837 837 837 837 836 835 834 832 831 830 828 827 825 824 822 821 819 817 815 813 810 808 806 804 802 799 797 796 794 792
761 760 759 760 760 761 763 764 764 765 766 767 768 769 770 771 772 774 775 777 777 779 782 783 784 787 789 790 790 792 795 797 800 804 807 811 815 817 819 820 822 823 825 827 828 828 830 831 832 833 834 835 835 836 836 837 837 837 836 835 834 833 831 830 828 827 825 824 823 821 820 818 815 813 811 808 806 804 802 799 797 795 793 791 789
755 754 754 755 756 757 759 760 761 762 763 765 766 767 768 769 770 772 774 775 776 778 780 782 784 787 789 790 789 791 794 798 802 806 809 813 816 818 818 819 821 823 825 826 827 828 829 830 832 833 833 834 835 836 836 836 836 836 835 834 833 831 830 828 827 826 824 823 822 820 818 816 814 811 809 806 804 802 799 797 795 793 791 789 787
750 749 749 750 752 754 755 757 758 760 761 762 763 765 766 768 769 771 773 774 776 777 778 780 783 786 789 789 790 790 793 798 802 806 809 813 815 816 817 819 821 823 825 826 827 828 829 830 831 832 833 834 835 835 836 836 836 835 834 833 831 830 829 827 826 825 824 823 821 819 816 814 812 809 807 805 802 800 798 795 793 791 789 787 784
747 745 745 747 749 751 752 754 756 757 759 760 762 763 765 766 768 770 771 773 775 776 778 779 781 784 786 787 788 790 793 798 802 805 807 811 813 815 817 819 821 822 824 825 826 827 828 829 831 832 832 833 834 835 835 835 834 834 833 831 830 829 828 826 825 824 823 822 820 817 815 812 810 808 805 803 801 798 796 793 791 789 787 785 782
745 742 742 744 746 748 750 752 754 755 757 758 760 762 763 765 767 768 770 773 775 776 778 779 781 783 785 786 787 790 793 797 800 803 806 809 812 815 817 820 821 822 823 824 825 827 828 829 830 831 832 833 834 834 834 834 833 833 831 830 829 827 826 825 824 823 822 820 818 815 813 811 808 806 804 801 799 797 794 792 790 787 785 783 781
745 743 742 743 745 747 749 751 753 754 756 757 759 761 762 764 766 768 770 772 774 777 779 781 782 784 788 790 790 792 794 797 801 804 806 810 813 816 818 820 821 821 822 823 825 826 827 828 829 831 832 832 833 833 833 833 832 831 830 829 827 826 825 824 823 822 820 819 816 814 811 809 807 804 802 800 798 795 793 790 788 786 783 781 779
748 746 744 745 746 748 750 751 752 754 755 757 758 760 761 764 766 768 770 772 774 777 780 782 783 785 789 792 792 794 796 799 802 805 807 810 814 816 818 819 820 821 822 823 824 825 827 828 829 830 831 832 832 833 832 832 831 830 829 827 826 825 824 823 822 820 819 817 814 812 810 807 805 803 801 799 797 794 792 789 787 784 782 780 777
751 749 748 748 749 750 751 752 753 754 756 757 758 760 762 764 766 768 770 772 775 777 780 782 784 788 791 793 793 795 798 801 804 806 809 812 814 816 817 818 819 820 821 822 824 825 826 827 828 830 831 831 832 832 831 831 830 829 827 826 825 824 823 822 820 819 817 815 813 810 808 806 804 802 800 798 795 793 790 788 786 783 781 779 776
754 753 752 751 751 752 753 754 754 755 756 758 759 761 763 765 767 769 770 772 775 778 780 782 786 791 794 794 794 796 799 802 805 808 810 812 814 815 817 818 818 819 821 822 824 825 826 827 828 829 830 831 831 831 830 830 829 827 827 826 824 823 822 821 819 817 816 813 811 809 807 805 803 801 799 797 794 792 790 787 785 782 780 778 775
758 757 756 755 754 755 755 755 756 757 758 759 761 763 764 766 768 769 771 772 775 778 780 782 786 792 795 794 795 798 801 803 806 809 811 812 814 816 816 817 818 819 821 822 824 825 826 827 828 829 830 830 830 830 829 829 828 827 826 825 824 822 821 819 818 816 814 813 811 809 807 804 802 800 798 796 794 791 789 786 784 781 779 777 775
762 761 760 759 758 758 758 758 759 759 760 761 763 764 766 768 769 770 772 774 776 778 781 784 787 792 795 795 797 800 802 804 807 809 811 813 815 815 816 817 818 820 821 822 823 825 826 827 828 829 829 829 829 829 828 828 827 826 825 824 823 821 820 818 817 815 814 812 810 808 806 804 802 800 798 796 793 791 788 786 783 781 778 776 774
766 765 764 763 762 762 762 762 762 762 763 764 765 767 768 770 772 773 775 777 778 780 783 787 790 793 796 797 799 802 804 806 808 810 812 814 815 815 816 818 819 820 821 822 823 825 826 827 827 828 828 828 828 828 828 827 826 826 825 824 822 821 819 818 816 814 813 811 810 808 806 804 802 800 798 795 793 790 788 785 783 780 778 775 774
770 769 768 767 767 767 766 766 766 766 767 768 769 770 772 773 775 776 778 780 782 784 787 789 792 794 797 799 801 803 805 807 809 811 812 814 815 816 817 818 819 820 821 822 823 825 825 826 827 827 827 827 827 827 827 826 826 825 824 823 822 820 819 817 815 814 812 811 809 807 806 804 802 800 797 795 793 790 788 785 782 780 778 775 773
774 773 773 772 771 771 771 770 770 770 770 771 772 773 775 776 778 780 782 784 786 788 790 792 794 796 798 801 803 804 806 808 810 811 813 814 815 816 818 818 819 820 821 822 823 824 825 825 826 826 826 826 826 826 826 825 825 824 823 822 821 820 818 816 815 813 812 810 809 807 806 804 801 799 797 795 792 790 787 785 783 780 778 776 774
777 777 776 776 776 775 775 775 775 775 775 775 776 777 778 780 781 783 785 787 789 791 793 795 796 798 800 802 804 806 807 809 811 812 814 815 816 817 818 818 819 820 821 822 823 823 824 824 825 825 825 825 825 825 825 825 824 823 822 821 820 819 817 816 814 813 812 810 809 807 805 804 801 799 797 795 792 790 787 785 783 781 778 776 774